World > North America > United States > Florida > Melbourne   City of Melbourne, Florida

Melbourne, FL Hourly Weather Conditions

Feedback E-mail the Weather

Quick WX

Melbourne, FL Weather Maps

°F °C°F °C
Melbourne Weather Map
UTC Time: 11/27/2022, 15:46
Your Time:

Melbourne, FL Regional Weather

Expires:202211271600;;895819
ASUS42 KTBW 271511
RWRFL 
FLORIDA REGIONAL WEATHER ROUNDUP
NATIONAL WEATHER SERVICE TAMPA BAY RUSKIN FL
1000 AM EST SUN NOV 27 2022

NOTE: "FAIR" INDICATES FEW OR NO CLOUDS BELOW 12,000 FEET WITH NO
SIGNIFICANT WEATHER AND/OR OBSTRUCTIONS TO VISIBILITY.


FLZ041-047-054-059-064-141-147-271600-
EAST CENTRAL FLORIDA
  
CITY           SKY/WX    TMP DP  RH WIND       PRES   REMARKS
ORMOND BEACH   PTSUNNY   77  77 100 SW16G23   30.00S                  
DAYTONA BEACH  PTSUNNY   78  70  76 SW17G24   30.00R                  
DELAND         MOSUNNY   77  69  77 S12G20    30.02R                  
NEW SMYRNA BEA PTSUNNY   75  73  94 SW10G17   30.01R                  
JFK SPACE CTR  MOSUNNY   77  73  87 SW17G23   30.00S                  
TITUSVILLE     PTSUNNY   81  73  78 SW14G21   30.03                   
CAPE CANAVERAL MOSUNNY   79  73  79 S14       30.00S                  
PATRICK AFB    MOSUNNY   79  72  79 SW16      30.01R                  
MELBOURNE      MOSUNNY   78  72  81 SW13G24   30.03R                  
VERO BEACH     MOSUNNY   81  75  82 S13       30.05S                  
FT PIERCE      MOSUNNY   81  73  76 SW10G20   30.04S                  
STUART         MOSUNNY   81  72  74 SW12      30.07R                  

STATION/POSITION SKY/WX   TEMP    WIND        PRES    WAVE   SWELL
                          AIR SEA DIR/SP/G            HT/PER HT/PER
                          (F)     (DEG/KT/KT) (MB)    (FT/S) (FT/S)
28.5N   80.2W                 81  210/ 17/ 21 1015.4R   4/ 9   2/ 9
28.9N   78.5W              78 78  190/ 14/ 17 1017.3R   5/ 9   3/ 9
TRIDENT PIER               76 77  230/ 11/ 13 1015.7R
28.4N   80.5W                 73                N/A     2/10

$$

SKY/WX - Weather  TMP - Temperature  DP - Dew Point  RH - Humidity
WIND - Wind Direction/Speed PRES - Barometric Pressure VSB - Visibility
WCI - Wind Chill Index E13G22 Wind - East Wind 13 mph/Gusts of 22 mph

Trending Headlines

Trending Entertainment Headlines

Melbourne Radar Loop

Use the map search tool if you want to place a location marker on the radar map...

Melbourne Quick Facts

National Two Day Weather Forecast


E-mail the Melbourne Weather Forecast

Voice your opinion or tell us about page issues...